Location: Allos
(44.2333°N, 6.6333°E)
Time: 09:09:29
(UTC+00:00)

Cosmos 1939 Rocket - Pass Details

Date: 01 December 2020
Orbit: 532 x 584 km, 97.4° (Epoch: 25 January)

Event Time Altitude Azimuth Distance (km) Brightness Sun altitude
Rises 17:29:37 0° 162° (SSE) 2,670 6.3 -16.3°
Reaches altitude 10° 17:31:43 10° 161° (SSE) 1,789 5.4 -16.7°
Maximum altitude 17:35:34 76° 77° (ENE) 562 2.6 -17.3°
Drops below altitude 10° 17:39:30 10° 351° (N) 1,828 5.4 -18.0°
Sets 17:41:40 0° 350° (N) 2,735 6.4 -18.4°
